[[{"header":{"parameterUnit":"m.s-1","parameterCategory":1,"la1":30.2991,"la2":30.254,"lo1":-89.0895,"lo2":-89.0444,"dy":0.0017,"dx":0.0017,"nx":28,"ny":28,"refTime":"2024-02-10T09:00:00:Z","depth":0,"parameterNumber":2,"parameterNumberName":"U-component_of_WINDS"},"data":[0,0,0,0,0,0,0,0,0,0,0,0,0,0,0,0,0,0,0,0,0,0,0,0,0,0,0,0,0,0,0,0,0,0,0,0,0,0,0,0,0,0,0,0,0,0,0,0,0,0,0,0,0,0,0,0,0,0,-0.2759,-0.2758,0,-0.271,-0.2709,-0.2709,-0.2707,-0.2708,-0.2709,-0.2709,-0.2655,-0.2653,-0.2651,0,0,0,0,0,0,0,0,0,0,0,0,0,-0.2847,-0.2846,-0.2759,-0.2758,-0.2758,-0.271,-0.2709,-0.2708,-0.2707,-0.2708,-0.2709,-0.271,-0.2656,-0.2653,-0.2651,0,0,0,0,0,0,0,0,0,0,0,0,0,-0.2805,-0.2845,-0.2759,-0.2751,-0.275,-0.271,-0.2709,-0.2708,-0.2707,-0.2708,-0.2709,-0.271,-0.2656,-0.2653,-0.265,-0.2613,0,0,-0.2641,-0.264,0,0,0,0,0,0,0,0,-0.2807,-0.2801,-0.2753,-0.2752,-0.2751,-0.2716,-0.272,-0.2676,-0.2707,-0.2723,-0.2709,-0.271,-0.2674,-0.267,-0.2658,-0.2611,-0.2608,-0.2641,-0.2639,-0.2638,-0.2637,0,0,0,0,0,0,0,-0.281,-0.2803,-0.2739,-0.2752,-0.2751,-0.2749,-0.2744,-0.2712,-0.2694,-0.2722,-0.2722,-0.2716,-0.2674,-0.2661,-0.2657,-0.2607,-0.2641,-0.2638,-0.2636,-0.2635,-0.2524,-0.2523,0,0,0,0,0,0,-0.2815,-0.2806,-0.2741,-0.2738,-0.2782,-0.2747,-0.2741,-0.2726,-0.2694,-0.2691,-0.2716,-0.2716,-0.2666,-0.2661,-0.2655,-0.2608,-0.2638,-0.2635,-0.2633,-0.2525,-0.2524,-0.2523,0,0,0,0,0,0,-0.2817,-0.2809,-0.2743,-0.2772,-0.2763,-0.2744,-0.2727,-0.2724,-0.2712,-0.269,-0.2686,-0.2707,-0.2666,-0.2659,-0.2623,-0.2606,-0.2634,-0.2631,-0.2527,-0.2525,-0.2523,-0.2514,0,0,0,0,0,0,-0.2819,-0.281,-0.2797,-0.2772,-0.2762,-0.2713,-0.2726,-0.2723,-0.2707,-0.2708,-0.268,-0.2676,-0.2667,-0.2628,-0.262,-0.2602,-0.2628,-0.2528,-0.2526,-0.2524,-0.2516,-0.2512,-0.2509,0,0,0,0,0,-0.2823,-0.2796,-0.2796,-0.2788,-0.2745,-0.2712,-0.2707,-0.2697,-0.2706,-0.2692,-0.2677,-0.2677,-0.2609,-0.2624,-0.2616,-0.2597,-0.2529,-0.2527,-0.2524,-0.2517,-0.2513,-0.2509,0,0,0,0,0,0,-0.2818,-0.2792,-0.2792,-0.2757,-0.2737,-0.2712,-0.2694,-0.2693,-0.2669,-0.2671,-0.2659,-0.2653,-0.2616,-0.2603,-0.262,-0.2558,-0.257,-0.2566,-0.2568,-0.2564,-0.256,-0.2564,-0.2626,0,0,0,0,0,-0.2813,-0.279,-0.2768,-0.2739,-0.2729,-0.2713,-0.2699,-0.2693,-0.2672,-0.2663,-0.2645,-0.2623,-0.2597,-0.258,-0.2554,-0.2514,-0.2507,-0.2497,-0.2493,-0.2491,-0.2487,-0.2463,-0.2457,-0.2515,-0.2515,-0.2515,0,0,-0.2802,-0.2785,-0.2771,-0.2737,-0.2721,-0.2696,-0.2706,-0.2679,-0.266,-0.2658,-0.2623,-0.261,-0.2584,-0.2545,-0.2528,-0.2533,-0.2469,-0.2488,-0.2486,-0.2483,-0.246,-0.2454,-0.2449,-0.2513,-0.2513,-0.2513,0,0,-0.277,-0.2755,-0.2728,-0.2712,-0.2688,-0.2678,-0.2671,-0.2646,-0.2637,-0.2602,-0.26,-0.2576,-0.2531,-0.2513,-0.2497,-0.2456,-0.2455,-0.2448,-0.2431,-0.2408,-0.2403,-0.2399,-0.2383,-0.2377,-0.2445,-0.2445,-0.2445,0,-0.2759,-0.2722,-0.2714,-0.2687,-0.2672,-0.267,-0.2641,-0.2626,-0.2594,-0.2582,-0.2589,-0.2532,-0.2515,-0.2471,-0.2461,-0.2449,-0.244,-0.2451,-0.2405,-0.24,-0.2396,-0.2381,-0.2375,-0.2444,-0.2444,-0.2444,-0.2444,0,-0.2709,-0.2684,-0.2665,-0.2635,-0.2617,-0.259,-0.2576,-0.2559,-0.2554,-0.2543,-0.2506,-0.2485,-0.2455,-0.2444,-0.2439,-0.2399,-0.2403,-0.2408,-0.2419,-0.239,-0.2375,-0.237,-0.2443,-0.2443,-0.2443,-0.2444,0,0,-0.2673,-0.2639,-0.2631,-0.2617,-0.259,-0.2569,-0.2541,-0.2512,-0.2497,-0.2475,-0.2449,-0.2411,-0.2415,-0.2397,-0.239,-0.237,-0.2337,-0.2377,-0.2376,-0.2369,-0.2289,-0.2285,-0.2278,-0.2336,-0.2335,-0.2334,-0.2291,0,-0.2636,-0.2587,-0.2578,-0.2534,-0.251,-0.2507,-0.2482,-0.2461,-0.2449,-0.2425,-0.2412,-0.2384,-0.2392,-0.2381,-0.2361,-0.2345,-0.2321,-0.2348,-0.2311,-0.231,-0.2316,-0.2271,-0.2267,-0.2227,-0.2285,-0.2284,-0.2283,0,-0.2587,-0.2564,-0.2518,-0.2493,-0.2482,-0.246,-0.2432,-0.241,-0.2386,-0.2378,-0.2359,-0.2354,-0.2322,-0.2336,-0.2292,-0.2311,-0.2295,-0.2284,-0.2283,-0.2278,-0.2294,-0.2263,-0.2214,-0.2207,-0.2274,-0.2275,-0.2276,0,-0.2563,-0.2521,-0.2487,-0.2475,-0.2446,-0.243,-0.2416,-0.2393,-0.2376,-0.2351,-0.234,-0.2311,-0.2295,-0.2273,-0.2259,-0.2271,-0.2215,-0.2229,-0.2206,-0.2207,-0.2194,-0.2195,-0.214,-0.2186,-0.2186,-0.2186,-0.2186,0,-0.2522,-0.2494,-0.2476,-0.2456,-0.2423,-0.2412,-0.238,-0.2367,-0.2346,-0.2321,-0.2317,-0.2294,-0.2279,-0.2252,-0.2242,-0.2205,-0.2199,-0.219,-0.2188,-0.219,-0.2191,-0.2179,-0.218,-0.2184,-0.2185,-0.2185,-0.2185,0,-0.249,-0.2477,-0.244,-0.2415,-0.2408,-0.2385,-0.2362,-0.2341,-0.2329,-0.2298,-0.229,-0.227,-0.2239,-0.2224,-0.2185,-0.2178,-0.2137,-0.2136,-0.2145,-0.2144,-0.2122,-0.2123,-0.2056,-0.2046,-0.21,-0.2099,-0.2099,0,-0.2465,-0.2443,-0.2415,-0.2399,-0.2385,-0.2359,-0.2341,-0.2329,-0.2311,-0.2281,-0.2263,-0.2232,-0.2207,-0.2157,-0.2138,-0.2108,-0.2107,-0.2085,-0.2102,-0.2105,-0.2104,-0.2105,-0.2102,-0.2082,-0.2081,-0.2081,-0.208,0,-0.242,-0.2415,-0.239,-0.2363,-0.2342,-0.232,-0.2298,-0.2284,-0.2269,-0.2248,-0.2217,-0.2197,-0.2158,-0.2126,-0.2095,-0.2079,-0.2076,-0.2075,-0.2068,-0.207,-0.2075,-0.2071,-0.2135,-0.2077,-0.2077,-0.2077,-0.2077,-0.2078,-0.239,-0.2369,-0.2346,-0.2319,-0.2301,-0.228,-0.2259,-0.2244,-0.2218,-0.2186,-0.218,-0.2146,-0.2121,-0.2078,-0.2062,-0.2034,-0.2039,-0.2029,-0.2026,-0.2024,-0.2022,-0.2081,-0.2028,-0.2028,-0.2028,-0.2028,-0.2029,0,-0.2344,-0.2329,-0.2304,-0.2273,-0.2251,-0.2251,-0.2227,-0.2207,-0.2178,-0.2155,-0.213,-0.2093,-0.2063,-0.2041,-0.201,-0.1991,-0.1989,-0.1983,-0.1984,-0.198,-0.202,-0.2029,-0.1986,-0.1986,-0.1986,-0.1986,-0.1986,-0.1986,-0.2318,-0.2283,-0.2274,-0.223,-0.2215,-0.2182,-0.2168,-0.2148,-0.213,-0.2089,-0.2064,-0.205,-0.2028,-0.1994,-0.1965,-0.1959,-0.1947,-0.1941,-0.1935,-0.1973,-0.1977,-0.1982,-0.199,-0.1939,-0.1939,-0.1897,-0.1897,-0.1897]},{"header":{"parameterUnit":"m.s-1","parameterCategory":1,"la1":30.2991,"la2":30.254,"lo1":-89.0895,"lo2":-89.0444,"dy":0.0017,"dx":0.0017,"nx":28,"ny":28,"refTime":"2024-02-10T09:00:00:Z","depth":0,"parameterNumber":3,"parameterNumberName":"V-component_of_WINDS"},"data":[0,0,0,0,0,0,0,0,0,0,0,0,0,0,0,0,0,0,0,0,0,0,0,0,0,0,0,0,0,0,0,0,0,0,0,0,0,0,0,0,0,0,0,0,0,0,0,0,0,0,0,0,0,0,0,0,0,0,3.7634,3.7636,0,3.7803,3.7805,3.7807,3.7837,3.7836,3.7834,3.7833,3.8005,3.8011,3.8016,0,0,0,0,0,0,0,0,0,0,0,0,0,3.734,3.7345,3.7634,3.7636,3.7638,3.7803,3.7805,3.7807,3.7837,3.7836,3.7834,3.7832,3.8003,3.801,3.8017,0,0,0,0,0,0,0,0,0,0,0,0,0,3.7484,3.7347,3.7634,3.7673,3.7678,3.7802,3.7805,3.7808,3.7838,3.7836,3.7834,3.7832,3.8001,3.8009,3.8018,3.8114,0,0,3.8045,3.8049,0,0,0,0,0,0,0,0,3.7476,3.7495,3.7665,3.7671,3.7677,3.7797,3.7764,3.791,3.7838,3.7777,3.7833,3.7831,3.7937,3.7951,3.7987,3.8122,3.8129,3.8046,3.8051,3.8055,3.8057,0,0,0,0,0,0,0,3.7466,3.7488,3.7701,3.7668,3.7675,3.7683,3.7701,3.7792,3.7867,3.7782,3.7785,3.7805,3.794,3.7979,3.7992,3.8132,3.8045,3.8053,3.8059,3.8062,3.8358,3.8361,0,0,0,0,0,0,3.7449,3.7479,3.7695,3.7706,3.7569,3.769,3.771,3.776,3.7866,3.788,3.7806,3.7805,3.7965,3.7981,3.7998,3.8121,3.8055,3.8063,3.8068,3.8356,3.8359,3.8362,0,0,0,0,0,0,3.7442,3.7468,3.7689,3.7593,3.7622,3.7697,3.7753,3.7765,3.7804,3.7884,3.7897,3.7832,3.7964,3.7985,3.8086,3.8127,3.8067,3.8075,3.8353,3.8357,3.836,3.8365,0,0,0,0,0,0,3.7434,3.7465,3.7502,3.7594,3.7627,3.7774,3.7756,3.777,3.7819,3.7819,3.7912,3.7925,3.7964,3.8073,3.8095,3.8138,3.8082,3.8349,3.8354,3.8359,3.8361,3.8368,3.8374,0,0,0,0,0,3.7423,3.7495,3.7503,3.7529,3.7675,3.7776,3.7795,3.7838,3.7822,3.786,3.7912,3.7922,3.8118,3.8083,3.8108,3.8154,3.8347,3.8353,3.8359,3.8358,3.8367,3.8374,0,0,0,0,0,0,3.7405,3.7508,3.7518,3.7622,3.769,3.7781,3.783,3.7845,3.7919,3.7916,3.7967,3.7987,3.8086,3.813,3.8088,3.8255,3.8232,3.8243,3.8223,3.8232,3.8238,3.8226,3.8089,0,0,0,0,0,3.7413,3.7486,3.7572,3.7656,3.769,3.7754,3.78,3.7828,3.79,3.7929,3.7988,3.8058,3.8136,3.8185,3.8261,3.8367,3.8389,3.8412,3.8418,3.8423,3.8433,3.8496,3.8508,3.8381,3.8381,3.838,0,0,3.7431,3.7496,3.7539,3.7654,3.771,3.7786,3.7778,3.7858,3.7915,3.7941,3.804,3.8086,3.8168,3.8272,3.8321,3.8312,3.8473,3.843,3.8434,3.8441,3.8503,3.8515,3.8526,3.8385,3.8384,3.8383,0,0,3.7502,3.7558,3.7636,3.7692,3.7778,3.782,3.7839,3.7928,3.796,3.8061,3.8083,3.8152,3.8283,3.8342,3.8389,3.8486,3.8499,3.8509,3.8543,3.8604,3.8614,3.8623,3.8661,3.8674,3.8518,3.8518,3.8518,0,3.7513,3.7629,3.7673,3.7754,3.7805,3.7833,3.7913,3.7966,3.8071,3.8106,3.8094,3.8263,3.8319,3.844,3.8464,3.85,3.8525,3.8499,3.8609,3.8619,3.8628,3.8665,3.8678,3.8519,3.8518,3.8518,3.8518,0,3.764,3.772,3.7772,3.7875,3.7932,3.8012,3.807,3.8122,3.8146,3.819,3.8294,3.8363,3.8455,3.8485,3.8508,3.861,3.8602,3.8599,3.8577,3.864,3.8676,3.869,3.852,3.852,3.8519,3.8519,0,0,3.7705,3.7833,3.7852,3.7901,3.7998,3.8061,3.8143,3.8234,3.8279,3.8351,3.8423,3.8535,3.8534,3.8587,3.8617,3.867,3.8747,3.8661,3.8664,3.8677,3.8868,3.8872,3.8887,3.8755,3.8758,3.876,3.8862,0,3.779,3.7938,3.7982,3.8106,3.8183,3.8211,3.8283,3.8351,3.8395,3.8466,3.8515,3.8595,3.8586,3.8619,3.8672,3.8726,3.8786,3.8719,3.8824,3.8828,3.8806,3.8905,3.8909,3.9002,3.8876,3.8878,3.888,0,3.791,3.7986,3.8119,3.821,3.8243,3.8307,3.8396,3.8463,3.8542,3.857,3.8631,3.8657,3.8746,3.8718,3.8841,3.8795,3.884,3.8873,3.8878,3.8892,3.8859,3.8924,3.9032,3.9047,3.8902,3.89,3.8898,0,3.7948,3.8083,3.8181,3.8222,3.8329,3.8374,3.8421,3.8498,3.8551,3.8628,3.8663,3.8749,3.8797,3.8863,3.8913,3.8887,3.9033,3.9008,3.9061,3.906,3.9092,3.909,3.9212,3.9117,3.9117,3.9117,3.9116,0,3.804,3.8121,3.8201,3.8261,3.8353,3.8403,3.8493,3.8541,3.861,3.8682,3.871,3.8776,3.8836,3.8911,3.8949,3.9048,3.9068,3.9095,3.9105,3.9094,3.9092,3.9127,3.9123,3.912,3.9119,3.9119,3.9118,0,3.8099,3.8155,3.8264,3.8358,3.8384,3.8448,3.8529,3.8589,3.8635,3.8725,3.8749,3.8821,3.8911,3.8966,3.9079,3.9105,3.9215,3.9221,3.9189,3.9194,3.9245,3.9241,3.9396,3.9421,3.9306,3.9307,3.9308,0,3.8155,3.8219,3.832,3.8371,3.8419,3.8498,3.8554,3.8606,3.8662,3.8758,3.8808,3.89,3.8977,3.9119,3.9182,3.9269,3.9279,3.9328,3.9293,3.9281,3.9284,3.9281,3.9289,3.9334,3.9335,3.9336,3.9337,0,3.8251,3.8277,3.8355,3.8444,3.8509,3.8582,3.8654,3.8693,3.8758,3.882,3.8913,3.8973,3.909,3.9182,3.9276,3.9325,3.9343,3.9347,3.9365,3.9356,3.9336,3.9351,3.9208,3.9344,3.9343,3.9343,3.9342,3.9342,3.8313,3.8372,3.8454,3.8541,3.8601,3.8669,3.8732,3.8786,3.8865,3.8965,3.8991,3.9089,3.9169,3.9297,3.9349,3.9427,3.942,3.9444,3.9451,3.9457,3.946,3.9322,3.9444,3.9443,3.9443,3.9443,3.9443,0,3.8413,3.8468,3.8547,3.8649,3.8718,3.8729,3.881,3.8868,3.8955,3.9028,3.9103,3.9212,3.9302,3.9372,3.9465,3.9515,3.9525,3.9537,3.9536,3.9548,3.9459,3.9437,3.9527,3.9527,3.9527,3.9527,3.9527,3.9527,3.8474,3.8576,3.8611,3.8744,3.8798,3.8895,3.8941,3.9005,3.9064,3.9184,3.926,3.9305,3.9379,3.9477,3.9561,3.958,3.9614,3.9625,3.9645,3.9562,3.9553,3.9544,3.9524,3.9631,3.9631,3.9728,3.9729,3.9729]}]]